Total_Precipitation_Accumulation
0.00 0.02 0.06 0.07 0.05 0.06 0.06 0.06 0.07 0.07 0.06 0.04 0.03 0.04 0.05 0.06 0.11 0.16 0.17 0.11 0.07 0.07 0.08 0.16 0.20 0.14 0.16 0.22 0.25 0.29 0.35 0.37 0.30 0.23 0.23 0.24 0.19 0.19 0.25 0.25 0.29 0.36 0.17
0.00 0.02 0.06 0.10 0.09 0.08 0.08 0.06 0.08 0.08 0.04 0.03 0.04 0.05 0.04 0.07 0.12 0.13 0.09 0.05 0.04 0.05 0.07 0.15 0.20 0.17 0.18 0.24 0.33 0.41 0.46 0.40 0.32 0.22 0.25 0.27 0.25 0.24 0.26 0.24 0.35 0.37 0.19
0.00 0.01 0.04 0.09 0.10 0.09 0.08 0.06 0.13 0.14 0.07 0.06 0.08 0.07 0.05 0.04 0.06 0.06 0.05 0.03 0.02 0.02 0.04 0.12 0.19 0.18 0.20 0.27 0.36 0.39 0.43 0.41 0.33 0.25 0.34 0.72 0.60 0.34 0.30 0.34 0.34 0.25 0.22
0.00 0.00 0.03 0.07 0.12 0.11 0.09 0.11 0.24 0.23 0.15 0.10 0.09 0.07 0.04 0.03 0.08 0.15 0.14 0.04 0.02 0.02 0.03 0.10 0.17 0.15 0.18 0.27 0.32 0.31 0.31 0.29 0.32 0.39 0.61 0.92 0.85 0.52 0.50 0.47 0.37 0.26 0.24
0.00 0.02 0.11 0.15 0.12 0.11 0.13 0.23 0.36 0.32 0.26 0.17 0.09 0.05 0.04 0.04 0.07 0.14 0.10 0.05 0.02 0.02 0.04 0.09 0.14 0.13 0.14 0.17 0.20 0.20 0.24 0.35 0.46 0.55 0.72 0.74 0.73 0.60 0.56 0.51 0.44 0.32 0.28
0.00 0.02 0.09 0.15 0.12 0.13 0.21 0.33 0.36 0.38 0.42 0.26 0.11 0.05 0.08 0.08 0.09 0.12 0.11 0.05 0.02 0.02 0.02 0.04 0.08 0.12 0.13 0.14 0.15 0.19 0.27 0.40 0.51 0.58 0.68 0.62 0.58 0.50 0.46 0.44 0.43 0.38 0.29
0.00 0.02 0.04 0.14 0.14 0.16 0.25 0.33 0.32 0.37 0.42 0.29 0.11 0.10 0.12 0.07 0.07 0.10 0.13 0.05 0.02 0.01 0.01 0.02 0.05 0.08 0.11 0.14 0.14 0.17 0.21 0.21 0.33 0.47 0.68 0.66 0.48 0.34 0.36 0.39 0.41 0.39 0.34
0.00 0.01 0.03 0.10 0.11 0.15 0.25 0.35 0.29 0.31 0.33 0.23 0.13 0.13 0.10 0.08 0.08 0.11 0.09 0.04 0.01 0.00 0.00 0.01 0.05 0.07 0.08 0.11 0.14 0.18 0.17 0.13 0.19 0.21 0.29 0.48 0.48 0.35 0.28 0.35 0.38 0.32 0.29
0.02 0.01 0.02 0.03 0.04 0.08 0.18 0.29 0.33 0.33 0.29 0.16 0.13 0.10 0.10 0.10 0.07 0.06 0.04 0.02 0.00 0.00 0.00 0.01 0.03 0.04 0.04 0.06 0.09 0.11 0.12 0.09 0.12 0.11 0.12 0.29 0.31 0.25 0.22 0.26 0.33 0.38 0.37
0.03 0.01 0.01 0.01 0.02 0.05 0.07 0.16 0.31 0.36 0.31 0.19 0.14 0.12 0.10 0.07 0.05 0.03 0.01 0.00 0.00 0.00 0.00 0.00 0.01 0.01 0.02 0.03 0.04 0.08 0.08 0.07 0.07 0.07 0.08 0.17 0.22 0.20 0.22 0.19 0.18 0.20 0.22
0.04 0.01 0.01 0.01 0.01 0.08 0.14 0.13 0.27 0.36 0.32 0.18 0.13 0.11 0.11 0.09 0.09 0.08 0.01 0.00 0.00 0.00 0.00 0.01 0.01 0.01 0.01 0.01 0.04 0.09 0.05 0.05 0.06 0.06 0.05 0.08 0.11 0.12 0.15 0.12 0.10 0.09 0.09
0.04 0.05 0.03 0.01 0.01 0.04 0.14 0.36 0.48 0.37 0.26 0.17 0.15 0.08 0.17 0.20 0.17 0.10 0.01 0.00 0.01 0.00 0.00 0.01 0.01 0.00 0.00 0.00 0.02 0.04 0.02 0.03 0.06 0.05 0.03 0.05 0.06 0.05 0.05 0.05 0.04 0.04 0.03
0.04 0.04 0.06 0.02 0.01 0.02 0.14 0.36 0.53 0.57 0.48 0.43 0.25 0.11 0.16 0.11 0.04 0.03 0.01 0.02 0.03 0.00 0.00 0.00 0.00 0.00 0.00 0.00 0.00 0.01 0.02 0.03 0.05 0.06 0.03 0.03 0.04 0.05 0.05 0.04 0.02 0.02 0.01
0.12 0.09 0.08 0.06 0.02 0.01 0.03 0.10 0.20 0.24 0.25 0.27 0.16 0.05 0.04 0.04 0.02 0.01 0.00 0.01 0.01 0.00 0.00 0.00 0.00 0.00 0.00 0.00 0.00 0.01 0.02 0.03 0.13 0.15 0.10 0.08 0.08 0.11 0.11 0.07 0.03 0.02 0.03
0.20 0.23 0.21 0.13 0.07 0.04 0.05 0.06 0.05 0.10 0.12 0.10 0.11 0.08 0.03 0.02 0.02 0.01 0.00 0.00 0.00 0.00 0.00 0.00 0.00 0.00 0.00 0.00 0.00 0.01 0.03 0.06 0.14 0.14 0.17 0.21 0.23 0.27 0.24 0.20 0.13 0.07 0.05
0.23 0.27 0.31 0.24 0.18 0.12 0.09 0.07 0.08 0.10 0.09 0.07 0.05 0.05 0.04 0.02 0.01 0.01 0.01 0.00 0.00 0.00 0.00 0.00 0.00 0.00 0.00 0.00 0.00 0.00 0.00 0.03 0.09 0.11 0.15 0.25 0.35 0.31 0.34 0.36 0.29 0.19 0.14
0.32 0.32 0.34 0.33 0.31 0.26 0.23 0.19 0.16 0.17 0.14 0.11 0.07 0.04 0.04 0.03 0.02 0.02 0.03 0.01 0.01 0.00 0.00 0.00 0.00 0.00 0.00 0.00 0.00 0.00 0.00 0.00 0.01 0.02 0.03 0.08 0.19 0.32 0.40 0.41 0.35 0.29 0.24
0.35 0.34 0.38 0.37 0.37 0.39 0.38 0.38 0.35 0.30 0.25 0.18 0.13 0.09 0.07 0.07 0.07 0.08 0.08 0.05 0.03 0.02 0.01 0.00 0.00 0.00 0.00 0.00 0.00 0.00 0.00 0.00 0.00 0.00 0.01 0.02 0.07 0.15 0.28 0.29 0.27 0.30 0.26
0.36 0.35 0.37 0.39 0.39 0.46 0.49 0.51 0.53 0.52 0.47 0.35 0.28 0.20 0.18 0.20 0.21 0.22 0.23 0.20 0.12 0.05 0.03 0.02 0.01 0.00 0.00 0.01 0.00 0.00 0.00 0.00 0.00 0.00 0.01 0.01 0.02 0.05 0.10 0.09 0.09 0.11 0.15
0.30 0.32 0.35 0.39 0.40 0.45 0.58 0.65 0.74 0.77 0.70 0.68 0.58 0.42 0.42 0.48 0.52 0.55 0.51 0.48 0.35 0.21 0.15 0.10 0.09 0.07 0.04 0.02 0.01 0.01 0.00 0.00 0.00 0.00 0.00 0.01 0.01 0.01 0.02 0.02 0.05 0.04 0.04
0.22 0.24 0.30 0.33 0.40 0.47 0.53 0.66 0.83 1.01 1.00 1.07 1.02 0.79 0.70 0.78 0.93 1.01 0.93 0.84 0.68 0.55 0.44 0.38 0.45 0.43 0.27 0.08 0.07 0.05 0.02 0.01 0.01 0.00 0.00 0.01 0.02 0.02 0.01 0.01 0.02 0.04 0.03
0.15 0.16 0.21 0.29 0.38 0.46 0.54 0.70 0.85 0.96 0.89 0.98 1.10 1.02 0.87 0.81 0.92 1.01 1.12 1.06 0.89 0.80 0.81 0.81 0.94 0.95 0.64 0.30 0.25 0.26 0.15 0.09 0.02 0.02 0.01 0.01 0.02 0.04 0.03 0.01 0.00 0.01 0.02
0.10 0.11 0.14 0.20 0.30 0.43 0.58 0.81 1.01 1.18 1.23 1.25 1.14 1.17 1.12 0.98 0.94 0.91 1.05 1.08 0.98 0.92 0.97 1.03 1.21 1.40 1.14 0.76 0.52 0.54 0.44 0.39 0.21 0.05 0.02 0.03 0.02 0.02 0.03 0.02 0.01 0.01 0.00
0.06 0.07 0.10 0.18 0.32 0.53 0.73 0.98 1.23 1.42 1.43 1.29 1.30 1.28 1.10 0.97 0.92 0.89 0.93 1.01 1.05 0.99 1.06 1.06 1.08 1.39 1.49 1.20 0.95 0.69 0.51 0.42 0.34 0.22 0.07 0.03 0.05 0.03 0.02 0.01 0.01 0.01 0.01
0.11 0.13 0.20 0.39 0.62 0.86 1.06 1.30 1.58 1.59 1.47 1.37 1.33 1.29 1.20 1.12 1.05 1.00 1.04 1.01 0.97 0.97 1.03 1.19 1.28 1.46 1.56 1.42 1.24 1.07 0.90 0.71 0.44 0.38 0.32 0.12 0.04 0.03 0.02 0.01 0.01 0.00 0.01
0.40 0.52 0.73 0.96 1.12 1.19 1.30 1.42 1.55 1.55 1.57 1.51 1.31 1.21 1.17 1.17 1.18 1.18 1.16 1.02 0.91 0.91 0.96 1.09 1.24 1.39 1.56 1.57 1.33 1.10 1.01 0.90 0.79 0.63 0.44 0.30 0.15 0.04 0.02 0.01 0.01 0.01 0.00